Location: Zagreb
(45.8000°N, 16.0000°E)
Time: 14:09:26
(UTC+02:00)

Transit 2A Rocket - Pass Details

Date: 17 August 2022
Orbit: 593 x 907 km, 66.7° (Epoch: 25 September)

Event Time Altitude Azimuth Distance (km) Brightness Sun altitude
Rises 17:07:32 0° 181° (S) 3,002 8.2 29.0°
Reaches altitude 10° 17:10:11 10° 169° (S) 2,046 7.3 28.5°
Maximum altitude 17:13:59 26° 113° (ESE) 1,225 5.9 27.9°
Drops below altitude 10° 17:17:38 10° 56° (NE) 1,960 6.7 27.3°
Sets 17:20:06 0° 44° (NE) 2,849 7.5 26.8°
